Location: Alsip
(41.6689°N, 87.7387°W)
Time: 00:20:22
(UTC+00:00)

Cosmos 1833 Rocket - Visible Passes

Search period start: 23 October 2020 00:00
Search period end: 02 November 2020 00:00
Orbit: 831 x 841 km, 71.0° (Epoch: 22 October)

Date Brightness Start Highest point End Pass type
(mag) Time Alt. Az. Time Alt. Az. Time Alt. Az.
23 Oct 4.5 09:57:18 10° SSE 10:02:07 30° ESE 10:06:57 10° NE visible
23 Oct 3.2 11:40:36 10° SW 11:45:52 40° WNW 11:51:11 10° N visible
24 Oct 4.6 09:40:46 10° SSE 09:45:26 27° ESE 09:50:07 10° NE visible
24 Oct 3.1 11:23:45 10° SW 11:29:06 43° WNW 11:34:30 10° NNE visible
25 Oct 4.7 09:24:14 10° SSE 09:28:44 25° ESE 09:33:16 10° NE visible
25 Oct 2.9 11:06:56 10° SW 11:12:20 46° WNW 11:17:47 10° NNE visible
26 Oct 4.8 09:08:55 15° SE 09:12:04 23° E 09:16:24 10° NE visible
26 Oct 2.8 10:50:45 13° SW 10:55:36 50° WNW 11:01:06 10° NNE visible
27 Oct 4.8 08:54:13 20° ESE 08:55:23 21° E 08:59:30 10° NE visible
27 Oct 2.8 10:36:01 28° SW 10:38:50 55° WNW 10:44:24 10° NNE visible
28 Oct 4.9 08:39:10 19° E 08:39:10 19° E 08:42:35 10° NE visible
28 Oct 2.7 10:20:55 49° WSW 10:22:05 59° WNW 10:27:41 10° NNE visible
29 Oct 5.3 08:23:50 15° ENE 08:23:50 15° ENE 08:25:39 10° ENE visible
29 Oct 2.6 10:05:35 64° NW 10:05:35 64° NW 10:10:58 10° NNE visible
29 Oct 4.5 11:48:30 10° WNW 11:50:26 12° NW 11:52:22 10° NNW visible
30 Oct 5.6 08:08:19 11° ENE 08:08:19 11° ENE 08:08:40 10° ENE visible
30 Oct 3.2 09:50:04 49° N 09:50:04 49° N 09:54:15 10° NNE visible
30 Oct 4.4 11:31:49 11° WNW 11:33:36 13° NW 11:35:59 10° NNW visible
31 Oct 3.9 09:34:24 34° NNE 09:34:24 34° NNE 09:37:32 10° NNE visible
31 Oct 4.4 11:16:09 13° NW 11:16:46 13° NW 11:19:31 10° NNW visible
01 Nov 4.4 09:18:37 24° NNE 09:18:37 24° NNE 09:20:48 10° NNE visible
01 Nov 4.4 11:00:21 14° NW 11:00:21 14° NW 11:02:59 10° NNW visible
